Regional Weather Roundup
Issued by NWS Albany, NY

Home | Current Version | Previous Version | Graphics & Text | Print | Product List | Glossary Off
Versions: 1 2 3 4 5 6 7 8 9 10 11 12 13 14 15 16 17 18 19 20 21 22 23 24 25 26 27 28 29 30 31 32 33 34 35 36 37 38 39 40 41 42 43 44 45 46 47 48 49 50

085
ASUS41 KALY 231610
RWRALY

NEW YORK STATE HOURLY WEATHER ROUNDUP
NATIONAL WEATHER SERVICE ALBANY NY
1200 PM EDT THU MAR 23 2017

NOTE: "FAIR" INDICATES FEW OR NO CLOUDS BELOW 12,000 FEET WITH NO
SIGNIFICANT WEATHER AND/OR NO OBSTRUCTIONS TO VISIBILITY.

NYZ032-033-038>043-046>054-057>066-NYZ062>081-082-084-231700-
EAST


CITY           SKY/WX    TMP DP  RH WIND       PRES   REMARKS
ALBANY         SUNNY     30   1  29 NW12G21   30.56F WCI  20
GLENS FALLS    SUNNY     31  -2  24 VRB3      30.51F
POUGHKEEPSIE   SUNNY     28  -1  28 W5        30.57F WCI  23
MONTGOMERY     SUNNY     31  -3  23 CALM      30.54F
WHITE PLAINS   SUNNY     31  -1  25 W8        30.56S WCI  23
ISLIP          SUNNY     33  -2  22 NW15G22   30.57S WCI  23
NEW YORK CITY  SUNNY     34   1  24 NW9       30.60F WCI  27
CENTRAL PARK   SUNNY     32   0  25 VRB3      30.61F
$$

NYZ005>009-017-018-044>046-055-056-231700-
CENTRAL


CITY           SKY/WX    TMP DP  RH WIND       PRES   REMARKS
FULTON         MOSUNNY  N/A N/A N/A NW5       30.59F
SYRACUSE       MOSUNNY   27   7  42 W7        30.60S WCI  19
ROME           SUNNY     26   8  46 W10       30.59F WCI  16
ELMIRA         SUNNY     31   8  38 W7        30.57F WCI  24
BINGHAMTON     SUNNY     25   0  33 MISG      30.52S
MONTICELLO     SUNNY     27   0  31 NW10G18   30.52S WCI  17
$$

NYZ026>034-041>043-087-231700-
NORTH


CITY           SKY/WX    TMP DP  RH WIND       PRES   REMARKS
WATERTOWN      SUNNY     28  16  60 SW12      30.58F WCI  18
FORT DRUM      NOT AVBL
MASSENA        NOT AVBL
SARANAC LAKE   SUNNY     22  -2  35 W12       30.41F WCI  10
PLATTSBURGH    SUNNY     28   3  34 N18G24    30.50F WCI  15
$$

NYZ001>004-010>016-019>021-085-231700-
WEST


CITY           SKY/WX    TMP DP  RH WIND       PRES   REMARKS
NIAGARA FALLS  SUNNY     31  12  45 VRB3      30.59F
BUFFALO        MOSUNNY   29  13  51 S5        30.58F WCI  24
DUNKIRK        SUNNY     29  19  66 N8        30.59F WCI  21
JAMESTOWN      SUNNY     28   7  40 E5        30.51F WCI  23
WELLSVILLE     SUNNY     30   4  33 VRB3      30.49F
ROCHESTER      SUNNY     29  11  47 VRB3      30.60F
PENN YAN       SUNNY     27   6  41 CALM      30.58S
$$

             KEY
       WCI = WIND CHILL INDEX
       VSB = VISIBILITY
       HX  = HEAT INDEX
$$




USA.gov is the U.S. government's official web portal to all federal, state and local government web resources and services.